When you browse on this site, cookies collect data to enhance your experience and personalize the content and advertising you see.
Visit our Privacy Policy to learn more. By continuing to use the site, you agree to this use of cookies and data.
  • In Latvia
  • List of Countries
  • For 7 days
  • Water Temperature
  • Satellite Maps
  • Weather Map
  • Weather Widgets
  • user-avatar
    Login

    Hourly Weather Yulara

    Today, 19 July, Friday

    Time Temperature Precipitation Wind Pressure Humidity
    00:00 +11°C° 0 mm 3 mps 720 mmHg 34%
    01:00 +11°C° 0 mm 3 mps 720 mmHg 37%
    02:00 +10°C° 0 mm 3 mps 719 mmHg 41%
    03:00 +9°C° 0 mm 3 mps 719 mmHg 42%
    04:00 +9°C° 0 mm 3 mps 719 mmHg 44%
    05:00 +8°C° 0 mm 3 mps 719 mmHg 46%
    06:00 +8°C° 0 mm 3 mps 719 mmHg 47%
    07:00 +10°C° 0 mm 3 mps 720 mmHg 42%
    08:00 +13°C° 0 mm 2 mps 720 mmHg 37%
    09:00 +15°C° 0 mm 2 mps 721 mmHg 31%
    10:00 +18°C° 0 mm 3 mps 721 mmHg 26%
    11:00 +20°C° 0 mm 4 mps 721 mmHg 22%
    12:00 +23°C° 0 mm 5 mps 720 mmHg 17%
    13:00 +25°C° 0 mm 5 mps 720 mmHg 16%
    14:00 +26°C° 0 mm 4 mps 719 mmHg 14%
    15:00 +26°C° 0 mm 4 mps 718 mmHg 13%
    16:00 +22°C° 0 mm 4 mps 718 mmHg 16%
    17:00 +20°C° 0 mm 3 mps 718 mmHg 18%
    18:00 +17°C° 0 mm 3 mps 718 mmHg 21%
    19:00 +16°C° 0 mm 3 mps 718 mmHg 24%
    20:00 +14°C° 0 mm 3 mps 718 mmHg 27%
    21:00 +14°C° 0 mm 2 mps 719 mmHg 30%
    22:00 +13°C° 0 mm 2 mps 718 mmHg 31%
    23:00 +12°C° 0 mm 2 mps 718 mmHg 33%

    Tomorrow, 20 July, Saturday

    Time Temperature Precipitation Wind Pressure Humidity
    00:00 +12°C° 0 mm 2 mps 718 mmHg 35%
    01:00 +10°C° 0 mm 2 mps 718 mmHg 35%
    02:00 +10°C° 0 mm 2 mps 718 mmHg 34%
    03:00 +10°C° 0 mm 3 mps 717 mmHg 34%
    04:00 +9°C° 0 mm 3 mps 717 mmHg 35%
    05:00 +9°C° 0 mm 2 mps 717 mmHg 35%
    06:00 +8°C° 0 mm 2 mps 717 mmHg 36%
    07:00 +11°C° 0 mm 3 mps 717 mmHg 32%
    08:00 +13°C° 0 mm 4 mps 718 mmHg 27%
    09:00 +17°C° 0 mm 4 mps 718 mmHg 23%
    10:00 +20°C° 0 mm 5 mps 718 mmHg 20%
    11:00 +23°C° 0 mm 6 mps 718 mmHg 17%
    12:00 +27°C° 0 mm 7 mps 717 mmHg 14%
    13:00 +28°C° 0 mm 8 mps 717 mmHg 14%
    14:00 +28°C° 0 mm 9 mps 716 mmHg 14%
    15:00 +29°C° 0 mm 10 mps 716 mmHg 14%
    16:00 +27°C° 0 mm 8 mps 716 mmHg 17%
    17:00 +24°C° 0 mm 6 mps 715 mmHg 19%
    18:00 +21°C° 0 mm 4 mps 715 mmHg 22%
    19:00 +21°C° 0 mm 5 mps 716 mmHg 23%
    20:00 +20°C° 0 mm 5 mps 717 mmHg 23%
    21:00 +19°C° 0 mm 6 mps 718 mmHg 24%
    22:00 +17°C° 0 mm 6 mps 718 mmHg 32%
    23:00 +16°C° 0 mm 6 mps 718 mmHg 39%

    Day after tomorrow, 21 July, Sunday

    Time Temperature Precipitation Wind Pressure Humidity
    00:00 +14°C° 0 mm 6 mps 718 mmHg 47%
    01:00 +13°C° 0 mm 6 mps 718 mmHg 54%
    02:00 +10°C° 0 mm 5 mps 718 mmHg 60%
    03:00 +10°C° 0 mm 4 mps 718 mmHg 67%
    04:00 +8°C° 0 mm 4 mps 718 mmHg 67%
    05:00 +8°C° 0 mm 3 mps 718 mmHg 67%
    06:00 +7°C° 0 mm 3 mps 719 mmHg 68%
    07:00 +8°C° 0 mm 4 mps 719 mmHg 60%
    08:00 +11°C° 0 mm 4 mps 720 mmHg 53%
    09:00 +12°C° 0 mm 5 mps 720 mmHg 45%
    10:00 +14°C° 0 mm 4 mps 720 mmHg 41%
    11:00 +16°C° 0 mm 3 mps 720 mmHg 36%
    12:00 +18°C° 0 mm 3 mps 719 mmHg 31%
    13:00 +19°C° 0 mm 2 mps 719 mmHg 29%
    14:00 +20°C° 0 mm 2 mps 718 mmHg 27%
    15:00 +22°C° 0 mm 1 mps 717 mmHg 25%
    16:00 +19°C° 0 mm 1 mps 717 mmHg 31%
    17:00 +16°C° 0 mm 2 mps 717 mmHg 37%
    18:00 +14°C° 0 mm 2 mps 717 mmHg 43%
    19:00 +13°C° 0 mm 2 mps 717 mmHg 42%
    20:00 +12°C° 0 mm 3 mps 717 mmHg 41%
    21:00 +12°C° 0 mm 3 mps 718 mmHg 40%
    22:00 +11°C° 0 mm 3 mps 718 mmHg 40%
    23:00 +11°C° 0 mm 3 mps 717 mmHg 39%

    22 July, Monday

    Time Temperature Precipitation Wind Pressure Humidity
    00:00 +10°C° 0 mm 3 mps 717 mmHg 38%
    01:00 +10°C° 0 mm 3 mps 717 mmHg 39%
    02:00 +9°C° 0 mm 3 mps 717 mmHg 39%
    03:00 +9°C° 0 mm 3 mps 717 mmHg 39%
    04:00 +8°C° 0 mm 3 mps 717 mmHg 42%
    05:00 +8°C° 0 mm 3 mps 717 mmHg 45%
    06:00 +8°C° 0 mm 3 mps 717 mmHg 48%
    07:00 +9°C° 0 mm 3 mps 718 mmHg 44%
    08:00 +11°C° 0 mm 3 mps 719 mmHg 41%
    09:00 +13°C° 0 mm 4 mps 719 mmHg 37%
    10:00 +17°C° 0 mm 4 mps 719 mmHg 34%
    11:00 +19°C° 0 mm 3 mps 719 mmHg 30%
    12:00 +21°C° 0 mm 3 mps 718 mmHg 27%
    13:00 +22°C° 0 mm 3 mps 718 mmHg 26%
    14:00 +24°C° 0 mm 2 mps 717 mmHg 24%
    15:00 +25°C° 0 mm 2 mps 716 mmHg 23%
    16:00 +21°C° 0 mm 2 mps 716 mmHg 29%
    17:00 +19°C° 0 mm 2 mps 716 mmHg 35%
    18:00 +16°C° 0 mm 2 mps 716 mmHg 41%
    19:00 +16°C° 0 mm 2 mps 716 mmHg 40%
    20:00 +16°C° 0 mm 3 mps 717 mmHg 38%
    21:00 +16°C° 0 mm 3 mps 718 mmHg 37%
    22:00 +14°C° 0 mm 4 mps 718 mmHg 38%
    23:00 +13°C° 0 mm 4 mps 718 mmHg 38%

    23 July, Tuesday

    Time Temperature Precipitation Wind Pressure Humidity
    00:00 +12°C° 0 mm 4 mps 719 mmHg 39%
    01:00 +12°C° 0 mm 5 mps 719 mmHg 38%
    02:00 +10°C° 0 mm 5 mps 718 mmHg 37%
    03:00 +10°C° 0 mm 5 mps 718 mmHg 35%
    04:00 +9°C° 0 mm 5 mps 719 mmHg 35%
    05:00 +9°C° 0 mm 5 mps 719 mmHg 36%
    06:00 +8°C° 0 mm 4 mps 720 mmHg 36%
    07:00 +10°C° 0 mm 5 mps 720 mmHg 33%
    08:00 +13°C° 0 mm 6 mps 721 mmHg 30%
    09:00 +15°C° 0 mm 7 mps 721 mmHg 27%
    10:00 +17°C° 0 mm 7 mps 721 mmHg 26%
    11:00 +20°C° 0 mm 7 mps 721 mmHg 24%
    12:00 +22°C° 0 mm 6 mps 721 mmHg 23%
    13:00 +23°C° 0 mm 5 mps 720 mmHg 22%
    14:00 +25°C° 0 mm 4 mps 720 mmHg 22%
    15:00 +25°C° 0 mm 3 mps 719 mmHg 21%
    16:00 +23°C° 0 mm 4 mps 719 mmHg 24%
    17:00 +21°C° 0 mm 4 mps 720 mmHg 26%
    18:00 +19°C° 0 mm 4 mps 720 mmHg 29%
    19:00 +17°C° 0 mm 5 mps 721 mmHg 31%
    20:00 +16°C° 0 mm 5 mps 721 mmHg 33%
    21:00 +15°C° 0 mm 6 mps 722 mmHg 35%
    22:00 +14°C° 0 mm 6 mps 722 mmHg 37%
    23:00 +13°C° 0 mm 6 mps 722 mmHg 40%

    24 July, Wednesday

    Time Temperature Precipitation Wind Pressure Humidity
    00:00 +13°C° 0 mm 6 mps 722 mmHg 42%
    01:00 +11°C° 0 mm 6 mps 722 mmHg 46%
    02:00 +10°C° 0 mm 6 mps 722 mmHg 49%
    03:00 +10°C° 0 mm 6 mps 722 mmHg 53%
    04:00 +9°C° 0 mm 6 mps 723 mmHg 55%
    05:00 +9°C° 0 mm 6 mps 723 mmHg 58%
    06:00 +8°C° 0 mm 6 mps 723 mmHg 60%
    07:00 +10°C° 0 mm 7 mps 724 mmHg 56%
    08:00 +11°C° 0 mm 8 mps 724 mmHg 52%
    09:00 +12°C° 0 mm 9 mps 725 mmHg 48%
    10:00 +16°C° 0 mm 8 mps 724 mmHg 42%
    11:00 +18°C° 0 mm 8 mps 724 mmHg 35%
    12:00 +21°C° 0 mm 8 mps 724 mmHg 29%
    13:00 +22°C° 0 mm 7 mps 724 mmHg 27%
    14:00 +23°C° 0 mm 7 mps 723 mmHg 25%
    15:00 +23°C° 0 mm 6 mps 722 mmHg 24%
    16:00 +22°C° 0 mm 5 mps 723 mmHg 27%
    17:00 +20°C° 0 mm 5 mps 723 mmHg 30%
    18:00 +18°C° 0 mm 4 mps 723 mmHg 33%
    19:00 +17°C° 0 mm 4 mps 723 mmHg 36%
    20:00 +15°C° 0 mm 4 mps 724 mmHg 39%
    21:00 +14°C° 0 mm 4 mps 724 mmHg 42%
    22:00 +13°C° 0 mm 4 mps 724 mmHg 43%
    23:00 +13°C° 0 mm 4 mps 724 mmHg 45%
    Show more